Location: Unspecified
(0.0000°N, 0.0000°E)
Time: 00:19:09
(UTC+00:00)

STARLINK-1265 - Pass Details

Date: 19 May 2026
Orbit: 448 x 454 km, 53.2° (Epoch: 10 June)

Event Time Altitude Azimuth Distance (km) Brightness Sun altitude
Rises 18:16:47 0° 204° (SSW) 2,447 7.0 -4.8°
Reaches altitude 10° 18:18:59 10° 197° (SSW) 1,571 5.9 -5.3°
Maximum altitude 18:22:21 43° 124° (SE) 632 3.5 -6.1°
Drops below altitude 10° 18:25:43 10° 51° (NE) 1,561 5.6 -6.9°
Sets 18:27:53 0° 44° (NE) 2,428 6.7 -7.4°
